TimePST,TemperatureF,Dew PointF,Humidity,Sea Level PressureIn,VisibilityMPH,Wind Direction,Wind SpeedMPH,Gust SpeedMPH,PrecipitationIn,Events,Conditions,WindDirDegrees,DateUTC
12:56 AM,-7.1,-11.9,79,30.68,10.0,Calm,Calm,-,N/A,,Clear,0,2013-01-19 08:56:00
1:56 AM,-11.0,-15.0,83,30.69,10.0,SSE,4.6,-,N/A,,Clear,150,2013-01-19 09:56:00
2:56 AM,-9.0,-14.1,79,30.69,10.0,Calm,Calm,-,N/A,,Clear,0,2013-01-19 10:56:00
3:56 AM,-9.9,-15.0,78,30.69,10.0,SE,4.6,-,N/A,,Clear,140,2013-01-19 11:56:00
4:23 AM,-9.4,-14.8,77,30.48,5.0,South,3.5,-,N/A,,Scattered Clouds,180,2013-01-19 12:23:00
4:29 AM,-11.2,-14.8,84,30.48,2.0,Calm,Calm,-,N/A,,Mostly Cloudy,0,2013-01-19 12:29:00
4:31 AM,-11.2,-14.8,84,30.48,0.8,South,3.5,-,N/A,,Mist,180,2013-01-19 12:31:00
4:43 AM,-11.2,-13.0,92,30.47,1.5,Calm,Calm,-,N/A,,Overcast,0,2013-01-19 12:43:00
4:45 AM,-11.2,-13.0,92,30.47,3.0,Calm,Calm,-,N/A,,Overcast,0,2013-01-19 12:45:00
4:56 AM,-9.0,-14.1,79,30.70,8.0,Calm,Calm,-,N/A,,Overcast,0,2013-01-19 12:56:00
5:02 AM,-9.4,-13.0,84,30.48,1.8,Calm,Calm,-,N/A,,Overcast,0,2013-01-19 13:02:00
5:06 AM,-9.4,-11.2,92,30.48,0.8,Calm,Calm,-,N/A,,Mist,0,2013-01-19 13:06:00
5:29 AM,-9.4,-13.0,84,30.48,0.2,Calm,Calm,-,N/A,Fog,Light Freezing Fog,0,2013-01-19 13:29:00
5:35 AM,-9.4,-14.8,77,30.48,1.0,Calm,Calm,-,N/A,,Mostly Cloudy,0,2013-01-19 13:35:00
5:38 AM,-11.2,-14.8,84,30.48,2.0,Calm,Calm,-,N/A,,Mostly Cloudy,0,2013-01-19 13:38:00
5:46 AM,-11.2,-14.8,84,30.48,7.0,Calm,Calm,-,N/A,,Mostly Cloudy,0,2013-01-19 13:46:00
5:56 AM,-11.0,-15.0,83,30.75,8.0,SE,4.6,-,N/A,,Scattered Clouds,140,2013-01-19 13:56:00
6:08 AM,-9.4,-14.8,77,30.48,8.0,SE,3.5,-,N/A,,Mostly Cloudy,140,2013-01-19 14:08:00
6:27 AM,-9.4,-14.8,77,30.49,1.2,Calm,Calm,-,N/A,,Mostly Cloudy,0,2013-01-19 14:27:00
6:34 AM,-11.2,-14.8,84,30.49,0.8,Calm,Calm,-,N/A,,Mist,0,2013-01-19 14:34:00
6:37 AM,-11.2,-14.8,84,30.49,1.5,Calm,Calm,-,N/A,,Scattered Clouds,0,2013-01-19 14:37:00
6:39 AM,-11.2,-14.8,84,30.49,4.0,Calm,Calm,-,N/A,,Scattered Clouds,0,2013-01-19 14:39:00
6:54 AM,-9.4,-14.8,77,30.49,2.5,Calm,Calm,-,N/A,,Haze,0,2013-01-19 14:54:00
6:56 AM,-9.9,-14.1,82,30.78,0.8,Calm,Calm,-,N/A,,Mist,0,2013-01-19 14:56:00
7:05 AM,-9.4,-11.2,92,30.49,0.2,South,3.5,-,N/A,Fog,Light Freezing Fog,170,2013-01-19 15:05:00
7:30 AM,-7.6,-14.8,71,30.50,1.0,Calm,Calm,-,N/A,,Haze,0,2013-01-19 15:30:00
7:32 AM,-7.6,-14.8,71,30.50,2.5,South,3.5,-,N/A,,Haze,170,2013-01-19 15:32:00
7:39 AM,-7.6,-14.8,71,30.50,5.0,Calm,Calm,-,N/A,,Haze,0,2013-01-19 15:39:00
7:52 AM,-4.0,-11.2,71,30.50,2.5,Calm,Calm,-,N/A,,Haze,0,2013-01-19 15:52:00
7:56 AM,-2.9,-9.9,72,30.78,2.0,Calm,Calm,-,N/A,,Haze,0,2013-01-19 15:56:00
8:02 AM,-2.2,-7.6,78,30.51,3.0,Calm,Calm,-,N/A,,Haze,0,2013-01-19 16:02:00
8:56 AM,7.0,-2.0,67,30.77,8.0,Calm,Calm,-,N/A,,Clear,0,2013-01-19 16:56:00
9:56 AM,10.9,3.9,73,30.77,9.0,Calm,Calm,-,N/A,,Clear,0,2013-01-19 17:56:00
10:56 AM,15.1,5.0,64,30.74,10.0,NNE,10.4,-,N/A,,Clear,30,2013-01-19 18:56:00
11:56 AM,19.9,9.0,62,30.71,10.0,NNE,8.1,-,N/A,,Clear,20,2013-01-19 19:56:00
12:56 PM,21.9,10.0,60,30.67,10.0,NNE,4.6,-,N/A,,Clear,30,2013-01-19 20:56:00
1:56 PM,24.1,10.9,57,30.66,10.0,NNE,4.6,-,N/A,,Clear,20,2013-01-19 21:56:00
2:56 PM,26.1,12.0,55,30.63,10.0,NNE,4.6,-,N/A,,Clear,20,2013-01-19 22:56:00
3:56 PM,25.0,10.9,55,30.64,10.0,NNE,4.6,-,N/A,,Clear,20,2013-01-19 23:56:00
4:56 PM,19.0,10.0,68,30.65,10.0,NE,4.6,-,N/A,,Clear,40,2013-01-20 00:56:00
5:56 PM,12.0,6.1,77,30.68,10.0,SE,3.5,-,N/A,,Clear,130,2013-01-20 01:56:00
6:56 PM,8.1,3.0,80,30.70,10.0,ESE,4.6,-,N/A,,Clear,110,2013-01-20 02:56:00
7:56 PM,1.0,-0.9,91,30.71,10.0,SSW,3.5,-,N/A,,Clear,210,2013-01-20 03:56:00
8:56 PM,-0.9,-5.1,83,30.69,10.0,South,5.8,-,N/A,,Clear,170,2013-01-20 04:56:00
9:56 PM,-2.9,-6.0,87,30.69,10.0,SSE,5.8,-,N/A,,Clear,160,2013-01-20 05:56:00
10:56 PM,-5.1,-9.0,83,30.68,10.0,SSE,4.6,-,0.01,,Clear,150,2013-01-20 06:56:00
11:56 PM,-6.0,-11.0,79,30.66,10.0,Calm,Calm,-,N/A,,Clear,0,2013-01-20 07:56:00